sat.trackr.live / text

‹ back to catalog

STARLINK-31728

NORAD 59496 · 2024-071N

PAYLOAD ACTIVE UNKNOWN

§ Identity

Operator
Country
US
Launch date
2024-04-13
Launch site
AFETR
Launch vehicle
Mass (kg)
RCS (m²)

Purposes: comms

External: N2YO · Heavens-Above · Gunter

§ Orbital elements

Epoch: 2026-09-20T20:28:57.012096Z

Period
94.27 min
Inclination
43.0014°
Eccentricity
0.0001973
Mean motion
15.27590403 rev/d
Perigee alt
481.7 km
Apogee alt
484.4 km
Semi-major
6,861.2 km
B*
5.0380e-4
RAAN
317.5369°
Arg perigee
278.7250°
Mean anomaly
81.3379°
Rev number
13,805

§ Raw data

STARLINK-317281 59496U 24071N   26263.85343764  .00013631  00000+0  50380-3 0  99982 59496  43.0014 317.5369 0001973 278.7250  81.3379 15.27590403138056

JSON: /api/v1/satellites/59496 · /tle

For live sub-satellite position, see the globe view (requires WebGL).

§ Visibility from observer

Set your observer location to see the next 7 days of passes ≥ 10°. The values pass through the URL so the page stays shareable.

No JS? Fill the form by hand. The geolocation button needs JavaScript.